Tracking 26321 objects as of 27-Nov-2022
HD Live streaming from Space Station
objects crossing your sky now

COSMOS 1408 DEB

Track COSMOS 1408 DEB now!
10-day predictions


NORAD ID: 50395
Int'l Code: 1982-092ADH
Perigee: 365.9 km
Apogee: 839.0 km
Inclination: 82.3 °
Period: 96.6 minutes
Semi major axis: 6973 km
RCS: Unknown
Launch date: September 16, 1982
Source: Commonwealth of Independent States (former USSR) (CIS)
Launch site: PLESETSK MISSILE AND SPACE COMPLEX (PKMTR)

Note: This is SATELLITE DEBRIS
aabbcc
Your satellite tracking list
Your tracking list is empty




NASA's NSSDC Master Catalog

Two Line Element Set (TLE):
1 50395U 82092ADH 22330.46010139  .00075829  00000-0  24588-2 0  9997
2 50395  82.2876 130.7173 0339208 355.3136   4.4923 14.90854800 54943
Source of the keplerian elements: AFSPC